• MPC Preparation (Info)

  • MPEC 2010-V25 : 2010 VP

    The following Minor Planet Electronic Circular may be linked-to from your own Web pages, but must not otherwise be redistributed electronically.

    A form allowing access to any MPEC is at the bottom of this page.


    Read MPEC 2010-V24 Read MPEC 2010-V26


    M.P.E.C. 2010-V25                                Issued 2010 Nov. 2, 18:26 UT
    
         The Minor Planet Electronic Circulars contain information on unusual
             minor planets and routine data on comets.  They are published
       on behalf of Commission 20 of the International Astronomical Union by the
              Minor Planet Center, Smithsonian Astrophysical Observatory,
                              Cambridge, MA 02138, U.S.A.
    
                 Prepared using the Tamkin Foundation Computer Network
    
                                  MPC@CFA.HARVARD.EDU
           URL https://www.minorplanetcenter.org/iau/mpc.html  ISSN 1523-6714
    
                                        2010 VP
    
    Observations:
         K10V00P* C2010 11 01.28961 01 08 35.53 +14 26 36.5          22.1 w EV025F51
         K10V00P  C2010 11 01.30529 01 08 31.44 +14 26 47.2          21.9 w EV025F51
         K10V00P  C2010 11 01.33911 01 08 22.60 +14 27 10.1          22.0 w EV025F51
         K10V00P  C2010 11 02.20764 01 04 43.11 +14 36 46.4          21.7 V EV025291
         K10V00P  C2010 11 02.21856 01 04 40.15 +14 36 53.8          22.5 V EV025291
         K10V00P  C2010 11 02.22553 01 04 38.14 +14 36 58.8          21.5 V EV025291
    
    Observer details:
    291 LPL/Spacewatch II.  Observer T. H. Bressi.  1.8-m f/2.7 reflector + CCD.
    F51 Pan-STARRS 1, Haleakala.  Observers N. Primak, A. Schultz, S. Watters,
        J. Thiel, T. Goggia.  Measurer P. 1 Science Consortium.  1.8-m
        Ritchey-Chretien + CCD.
    
    Orbital elements:
    2010 VP                                                  Earth MOID = 0.0267 AU
    Epoch 2010 Oct. 31.0 TT = JDT 2455500.5                 MPC
    M 337.30342              (2000.0)            P               Q
    n   0.34154785     Peri.   98.66565     -0.51338620     -0.85743073
    a   2.0269125      Node    22.33261     +0.74627201     -0.46639087
    e   0.6136329      Incl.    5.33267     +0.42368938     -0.21746746
    P   2.89           H   24.1           G   0.15
    From 6 observations 2010 Nov. 1-2.  E-assumed.
    
    Ephemeris:
    2010 VP                  a,e,i = 2.03, 0.61, 5                   q = 0.7831
    Date    TT    R. A. (2000) Decl.     Delta      r     Elong.  Phase     V
    2010 10 31    01 13.66   +14 12.9    0.232    1.217   164.0    13.0    22.1
    2010 11 01    01 09.75   +14 23.5    0.224    1.208   162.1    14.6    22.1
    2010 11 02    01 05.60   +14 34.6    0.217    1.199   160.2    16.3    22.1
    2010 11 03    01 01.21   +14 46.2    0.210    1.189   158.2    18.1    22.0
    2010 11 04    00 56.55   +14 58.3    0.202    1.180   156.1    19.9    22.0
    2010 11 05    00 51.61   +15 10.9    0.196    1.171   154.0    21.8    22.0
    2010 11 06    00 46.36   +15 24.0    0.189    1.161   151.8    23.8    21.9
    2010 11 07    00 40.79   +15 37.8    0.182    1.152   149.6    25.8    21.9
    2010 11 08    00 34.87   +15 52.0    0.176    1.143   147.2    28.0    21.9
    2010 11 09    00 28.57   +16 06.8    0.170    1.133   144.8    30.2    21.8
    2010 11 10    00 21.87   +16 22.0    0.163    1.124   142.3    32.6    21.8
    2010 11 11    00 14.73   +16 37.7    0.158    1.115   139.7    35.0    21.8
    2010 11 12    00 07.11   +16 53.8    0.152    1.106   137.0    37.6    21.7
    2010 11 13    23 58.99   +17 10.1    0.146    1.097   134.2    40.3    21.7
    2010 11 14    23 50.32   +17 26.6    0.141    1.088   131.3    43.1    21.7
    2010 11 15    23 41.06   +17 43.0    0.136    1.079   128.2    46.1    21.7
    2010 11 16    23 31.17   +17 59.0    0.131    1.070   125.0    49.2    21.7
    2010 11 17    23 20.60   +18 14.5    0.127    1.061   121.7    52.5    21.7
    2010 11 18    23 09.32   +18 29.0    0.122    1.052   118.2    55.9    21.7
    2010 11 19    22 57.30   +18 42.0    0.118    1.043   114.5    59.5    21.7
    2010 11 20    22 44.50   +18 53.1    0.114    1.034   110.7    63.3    21.7
    
    Timothy B. Spahr             (C) Copyright 2010 MPC           M.P.E.C. 2010-V25
    

    Read MPEC 2010-V24 Read MPEC 2010-V26


    MPEC number:

    Enter an MPEC number in one of the following forms:

    • 1997-B01 (the full form)
    • J97B01 (the packed version of the full form)
    • B01 (the abbreviated form)